Total_Precipitation_Accumulation
1.33 1.48 2.18 2.94 3.31 2.74 2.32 1.80 1.37 1.24 1.13 0.89 0.71 0.71 1.06 1.44 1.80 2.10 1.92 1.67 1.23 1.05 1.18 1.75 2.23 1.99 1.70 1.49 1.48 1.58 1.54 1.62 1.50 1.44 1.25 1.09 0.94 0.88 0.82 0.69 0.64 0.67 0.62 0.59 0.62 0.75 0.78 0.83 0.86
1.26 2.10 2.91 3.60 3.14 2.37 2.22 1.78 1.49 1.19 0.83 0.68 0.56 0.57 0.76 0.78 0.73 1.09 1.90 1.96 1.29 1.01 1.08 1.53 2.28 1.99 1.80 1.68 1.70 1.62 1.60 1.67 1.49 1.37 1.20 1.05 0.97 0.94 0.92 0.97 1.00 0.86 0.68 0.63 0.62 0.75 0.78 0.77 0.84
1.51 2.71 3.71 3.56 2.51 2.13 2.28 1.80 1.31 0.91 0.65 0.67 0.63 0.56 0.71 0.88 0.92 1.47 2.04 1.69 1.25 1.05 1.16 1.78 2.25 1.93 1.76 1.73 1.73 1.64 1.70 1.67 1.49 1.30 1.09 1.00 1.02 1.13 1.21 1.20 1.07 0.85 0.71 0.67 0.67 0.74 0.79 0.76 0.74
1.96 3.14 3.26 2.71 2.34 1.95 1.76 1.51 1.08 1.02 0.81 0.62 0.62 0.66 0.62 0.89 1.09 1.51 1.64 1.38 1.26 1.26 1.25 1.74 2.15 1.95 1.76 1.73 1.67 1.65 1.65 1.66 1.56 1.30 1.10 1.03 1.03 1.04 1.09 1.12 1.03 0.86 0.74 0.66 0.71 0.78 0.80 0.78 0.78
2.41 3.00 2.92 2.48 2.25 1.85 1.39 1.19 1.03 1.14 1.04 0.75 0.63 0.82 0.94 1.25 1.41 1.48 1.49 1.45 1.20 1.22 1.27 1.58 1.99 1.86 1.64 1.60 1.65 1.71 1.69 1.66 1.58 1.32 1.18 1.16 1.10 1.00 1.02 1.02 0.95 0.80 0.69 0.67 0.73 0.78 0.83 0.79 0.81
2.68 2.67 2.85 2.71 2.46 2.01 1.58 1.26 1.09 1.11 0.98 0.79 0.74 0.92 1.20 1.69 1.73 1.64 1.42 1.40 1.32 1.22 1.20 1.37 1.76 1.83 1.64 1.56 1.55 1.61 1.62 1.64 1.55 1.26 1.15 1.10 1.09 1.03 0.98 0.98 0.93 0.80 0.78 0.77 0.74 0.75 0.81 0.83 0.82
2.63 2.56 2.52 2.32 2.48 2.52 1.90 1.25 1.24 1.16 1.13 0.92 0.72 1.02 1.26 1.84 1.68 1.67 1.56 1.45 1.50 1.34 1.28 1.31 1.53 1.67 1.85 1.84 1.70 1.62 1.56 1.55 1.51 1.29 1.18 1.12 1.00 0.87 0.85 0.85 0.82 0.81 0.86 0.82 0.75 0.72 0.73 0.77 0.80
2.13 2.13 2.00 2.07 2.37 2.50 1.73 1.05 0.92 1.10 1.11 0.72 0.65 0.97 1.25 1.57 1.53 1.66 1.70 1.58 1.47 1.37 1.30 1.24 1.34 1.40 1.54 1.69 1.79 1.78 1.68 1.62 1.57 1.36 1.25 1.14 0.95 0.81 0.80 0.73 0.74 0.78 0.91 0.97 0.88 0.82 0.80 0.80 0.86
1.98 2.21 2.23 2.37 2.24 2.08 1.42 1.14 0.95 0.84 0.89 0.75 0.66 0.76 1.11 1.19 1.31 1.58 1.72 1.67 1.43 1.26 1.15 1.08 1.12 1.26 1.40 1.63 1.77 1.88 1.80 1.76 1.62 1.42 1.31 1.14 0.87 0.75 0.77 0.71 0.86 0.87 0.93 1.00 1.01 1.02 0.99 0.92 0.86
2.07 2.34 2.34 2.02 1.55 1.45 1.24 1.09 0.98 0.88 0.98 0.95 0.82 0.84 1.16 1.33 1.35 1.47 1.48 1.40 1.27 1.24 1.10 0.93 0.94 1.05 1.17 1.30 1.73 1.75 1.52 1.45 1.33 1.46 1.35 1.14 1.06 0.94 0.66 0.71 0.93 1.07 1.10 1.06 1.02 1.12 0.99 0.79 0.66
1.66 1.84 1.61 1.58 1.24 1.06 1.06 1.00 0.88 0.97 1.12 0.90 0.90 0.96 1.23 1.42 1.37 1.40 1.36 1.26 1.19 1.13 1.03 0.90 0.84 0.83 0.81 0.91 1.18 1.36 1.40 1.45 1.34 1.27 1.20 1.15 1.02 0.84 0.70 0.73 0.74 0.80 0.86 0.81 0.83 0.83 0.69 0.61 0.64
1.47 1.36 1.15 1.28 1.11 1.07 1.07 0.93 0.85 0.87 0.96 0.72 0.77 0.96 1.26 1.37 1.33 1.31 1.20 1.13 1.01 0.93 0.93 0.87 0.71 0.64 0.58 0.62 0.69 0.82 1.01 1.15 1.17 1.00 0.90 0.95 0.97 0.86 0.71 0.71 0.71 0.71 0.75 0.87 0.90 0.89 0.80 0.75 0.72
1.62 1.43 1.20 1.14 1.10 1.02 0.95 0.90 0.83 0.81 0.74 0.73 0.80 1.05 1.30 1.43 1.47 1.48 1.24 0.98 0.86 0.84 0.86 0.79 0.64 0.62 0.57 0.58 0.59 0.57 0.78 0.97 1.08 1.07 0.91 0.85 0.85 0.84 0.77 0.65 0.67 0.63 0.66 0.75 0.80 0.83 0.86 0.94 0.90
1.47 1.33 1.27 1.24 1.12 0.95 0.95 0.90 0.81 0.95 0.82 0.80 0.81 0.96 1.09 1.24 1.25 1.15 1.10 0.85 0.70 0.68 0.79 0.77 0.72 0.72 0.67 0.58 0.56 0.56 0.66 0.79 0.84 0.97 0.97 0.89 0.80 0.76 0.78 0.74 0.75 0.76 0.73 0.74 0.75 0.74 0.88 0.95 0.98
1.13 1.33 1.33 1.24 1.12 1.02 0.92 1.07 0.95 1.00 0.92 0.91 0.87 0.86 0.97 1.03 1.03 0.88 0.80 0.68 0.65 0.62 0.65 0.63 0.64 0.71 0.72 0.69 0.65 0.63 0.73 0.77 0.81 0.85 0.84 0.88 0.78 0.71 0.76 0.79 0.81 0.82 0.82 0.82 0.85 0.86 0.96 0.96 1.04
1.19 1.47 1.68 1.35 1.15 1.12 1.14 1.29 1.10 1.09 1.00 0.96 0.89 0.88 0.86 0.91 0.97 0.90 0.76 0.61 0.59 0.56 0.55 0.58 0.55 0.63 0.74 0.80 0.80 0.82 0.84 0.88 0.94 0.90 0.84 0.82 0.77 0.74 0.82 0.84 0.89 0.94 0.86 0.84 0.93 1.00 1.08 1.08 1.15
1.44 1.46 1.42 1.31 1.08 1.08 1.15 1.18 1.07 1.15 1.08 0.92 0.81 0.77 0.71 0.76 0.78 0.76 0.71 0.62 0.57 0.54 0.55 0.61 0.59 0.65 0.73 0.78 0.88 0.96 1.02 1.09 1.21 1.17 1.12 1.04 0.91 0.92 0.99 1.04 1.06 1.08 1.09 1.03 0.94 0.98 1.10 1.22 1.26
1.34 1.07 1.00 1.02 0.98 0.94 1.01 0.96 0.96 1.09 1.04 0.91 0.75 0.66 0.58 0.63 0.63 0.60 0.62 0.62 0.63 0.59 0.57 0.62 0.70 0.76 0.87 1.01 1.19 1.37 1.47 1.62 1.81 1.75 1.59 1.39 1.23 1.19 1.30 1.28 1.22 1.30 1.40 1.44 1.24 1.30 1.26 1.22 1.33
0.82 0.79 0.81 0.74 0.70 0.76 0.77 0.80 0.82 0.83 0.87 0.79 0.63 0.56 0.52 0.49 0.51 0.51 0.52 0.54 0.55 0.56 0.57 0.57 0.63 0.71 0.83 1.03 1.32 1.71 1.93 2.05 2.05 2.06 1.95 1.73 1.51 1.52 1.70 1.67 1.64 1.66 1.66 1.63 1.58 1.73 1.67 1.42 1.34
0.69 0.74 0.76 0.70 0.61 0.62 0.59 0.62 0.64 0.63 0.58 0.55 0.50 0.46 0.47 0.43 0.45 0.41 0.39 0.39 0.40 0.40 0.43 0.55 0.57 0.66 0.79 1.06 1.33 1.64 1.98 2.05 2.05 2.05 2.02 1.89 1.75 1.75 1.79 2.00 2.11 2.08 2.21 2.18 2.01 2.16 2.19 1.82 1.57
0.65 0.72 0.72 0.75 0.70 0.61 0.56 0.60 0.62 0.56 0.47 0.41 0.39 0.39 0.41 0.38 0.41 0.38 0.36 0.33 0.32 0.28 0.27 0.40 0.51 0.65 0.92 1.24 1.52 1.69 1.95 2.03 2.07 2.03 2.04 2.06 2.00 1.91 1.92 2.04 2.21 2.23 2.31 2.43 2.51 2.46 2.57 2.38 1.97
0.70 0.49 0.46 0.52 0.74 0.76 0.57 0.70 0.59 0.49 0.52 0.47 0.41 0.38 0.38 0.39 0.37 0.36 0.38 0.34 0.28 0.23 0.21 0.28 0.38 0.61 0.98 1.33 1.56 1.80 2.16 2.21 2.12 2.13 2.12 2.12 2.13 2.09 2.17 2.19 2.30 2.33 2.35 2.46 2.56 2.53 2.68 2.76 2.37
0.50 0.41 0.41 0.46 0.61 0.66 0.50 0.51 0.53 0.47 0.53 0.54 0.48 0.45 0.40 0.36 0.32 0.30 0.30 0.30 0.29 0.28 0.28 0.33 0.47 0.69 0.98 1.22 1.48 1.84 2.09 2.18 2.27 2.16 2.12 2.12 2.18 2.20 2.24 2.31 2.47 2.46 2.45 2.43 2.64 2.70 2.80 2.72 2.64
0.35 0.43 0.50 0.50 0.61 0.66 0.36 0.42 0.54 0.47 0.40 0.42 0.44 0.43 0.37 0.33 0.31 0.32 0.31 0.30 0.32 0.34 0.39 0.50 0.66 0.79 1.01 1.22 1.45 1.64 1.87 2.00 2.12 2.18 2.10 2.08 2.14 2.24 2.13 2.05 2.19 2.26 2.30 2.29 2.48 2.66 2.80 2.79 2.80
0.35 0.63 0.86 0.84 0.85 0.68 0.30 0.41 0.55 0.39 0.31 0.32 0.35 0.38 0.36 0.37 0.38 0.41 0.42 0.47 0.54 0.58 0.61 0.70 0.80 0.92 1.04 1.16 1.27 1.35 1.50 1.65 1.68 1.83 1.90 2.01 2.01 2.07 2.11 1.99 1.98 2.01 1.96 2.01 2.13 2.20 2.28 2.43 2.59
0.32 0.49 0.81 0.87 0.74 0.58 0.43 0.61 0.60 0.40 0.33 0.33 0.34 0.39 0.42 0.49 0.55 0.66 0.72 0.79 0.87 0.87 0.87 0.94 0.99 0.99 1.01 1.08 1.14 1.17 1.22 1.30 1.37 1.40 1.42 1.57 1.71 1.76 1.85 1.84 1.78 1.82 1.86 1.87 1.97 1.99 1.99 2.02 2.10
0.30 0.37 0.43 0.56 0.48 0.51 0.51 0.63 0.58 0.42 0.40 0.40 0.41 0.46 0.54 0.72 0.82 0.92 1.02 1.03 1.02 1.00 0.96 0.99 1.00 0.98 0.97 1.01 1.03 0.97 0.94 1.00 1.11 1.14 1.20 1.24 1.32 1.32 1.39 1.48 1.55 1.64 1.69 1.75 1.90 1.99 1.98 1.94 1.91
0.27 0.37 0.50 0.76 0.87 0.77 0.64 0.75 0.74 0.57 0.48 0.45 0.51 0.61 0.78 1.03 1.17 1.28 1.37 1.30 1.20 1.21 1.25 1.14 1.04 0.96 0.92 0.93 0.96 0.88 0.84 0.90 0.94 0.93 0.98 0.98 0.99 1.01 1.06 1.16 1.32 1.55 1.67 1.70 1.78 1.84 1.93 1.96 1.92
0.29 0.40 0.56 0.81 0.91 1.08 1.14 1.18 0.89 0.71 0.66 0.74 0.86 0.96 1.17 1.41 1.56 1.66 1.67 1.57 1.38 1.26 1.25 1.18 1.05 0.92 0.81 0.79 0.86 0.87 0.81 0.83 0.88 0.86 0.80 0.76 0.80 0.86 0.97 1.01 1.16 1.31 1.49 1.67 1.81 1.83 1.83 1.87 1.86
0.37 0.54 0.73 1.16 1.14 1.04 1.24 1.38 0.99 0.79 0.79 0.82 0.91 1.06 1.28 1.40 1.46 1.50 1.46 1.44 1.32 1.23 1.14 1.10 0.98 0.81 0.75 0.79 0.81 0.83 0.76 0.70 0.75 0.76 0.80 0.70 0.67 0.69 0.77 0.90 1.10 1.22 1.30 1.34 1.43 1.51 1.55 1.60 1.66